星链-34547 (STARLINK-34547)

导读

STARLINK-34547是美国于2025年7月8日发射的星链卫星,星链是美国SpaceX打造的低轨卫星互联网星座项目。这类卫星部署在近地轨道,通过组网为全球提供高速互联网接入服务,尤其服务偏远地区,此次发射延续了星链持续扩张星座规模、完善全球覆盖的进程。

Basic Information
目录编号:
64777
目录名称:
STARLINK-34547
国际标识:
2025-147Y
轨道中心:
EARTH
卫星名称:
星链-34547
卫星全名:
星链-34547 (STARLINK-34547)
卫星状态:
在轨 (已飞行423 天)
发射日期:
2025-07-08 UTC
国别 :
美国 (US)
星等 :
--
Orbit Information
数据来源 国际轨道数据
星历时间: 2026-09-04T01:11:14+0800
13小时前
查看轨道信息
半长轴: 6840.829km
偏心率: 0.0001269
轨道倾角: 53.156°
近地点辐角 91.328°
升交点赤经 131.916°
平近点角 268.787°
近地点: 461.823km
远地点: 463.561km
周期: 93.848分钟
每日圈数: 15.344038
Detailed Information
固有亮度:
5
最大亮度:
2.5
卫星平台:
Starlink V1.0
覆盖范围:
全球
运营商:
太空探索技术公司
运营商所在国:
美国
制造商(研发单位):
太空探索技术公司
制造商所在国:
美国
使用方式:
暂无
Satellite Introduction
Starlink 计划是 SpaceX 推出的全球卫星互联网项目,通过发射低轨道卫星,为全球尤其是偏远地区提供高速、低延迟的互联网服务。自 2019 年起,Starlink 已部署数千颗卫星,旨在缩小全球数字鸿沟,推动互联网普及。该项目还为军事、航空等行业提供通信支持,带来广泛经济效益。
2D Orbit Map
3D Orbit Map
Orbit Altitude Analysis Chart
Orbit Inclination Analysis Chart
Orbit Comprehensive Analysis Chart
View Comprehensive Chart
Conjunction Data List
Event ID Objects TCA Miss Dist (km) Collision Risk Probability Collision Risk Index (CRI) Action
CDM_260905-144605-846906-477721
2026-09-05T
14:46:09+0000
1.162 km
极远距离
1.560309E-5 中风险 0.59
CDM_260827-231205-917506-477722
EXO-0 (59175)
2026-08-27T
23:12:25+0000
1.408 km
极远距离
8.167043E-6 低风险 0.53